Location: De Greiden
(52.9496°N, 5.9137°E)
Time: 01:47:48
(UTC+00:00)

NOSS 2-2 (C) - Pass Details

Date: 24 January 2021
Orbit: 464 x 1743 km, 63.3° (Epoch: 31 January)

Event Time Altitude Azimuth Distance (km) Brightness Sun altitude
Rises 18:31:56 0° 311° (NW) 2,874 7.7 -21.5°
Reaches altitude 10° 18:34:01 10° 318° (NW) 2,093 6.8 -21.9°
Maximum altitude 18:38:35 45° 32° (NNE) 1,094 4.5 -22.5°
Enters shadow 18:39:08 44° 49° (NE) 1,139 4.5 -22.6°
